sat.trackr.live / text

‹ back to catalog

HISPASAT 30W-5

NORAD 37264 · 2010-070A

PAYLOAD ACTIVE UNKNOWN

§ Identity

Operator
Country
SPN
Launch date
2010-12-29
Launch site
FRGUI
Launch vehicle
Mass (kg)
RCS (m²)
7.08

Purposes: comms

External: N2YO · Heavens-Above · Gunter

§ Orbital elements

Epoch: 2026-05-25T04:42:03.573216Z

Period
1,436.11 min
Inclination
0.0674°
Eccentricity
0.0004753
Mean motion
1.00270873 rev/d
Perigee alt
35,766.8 km
Apogee alt
35,806.9 km
Semi-major
42,165.0 km
B*
0.0000e+0
RAAN
102.3304°
Arg perigee
343.4913°
Mean anomaly
197.4824°
Rev number
5,295

§ Raw data

HISPASAT 30W-51 37264U 10070A   26145.19587469 -.00000218  00000+0  00000+0 0  99972 37264   0.0674 102.3304 0004753 343.4913 197.4824  1.00270873 52954

JSON: /api/v1/satellites/37264 · /tle

For live sub-satellite position, see the globe view (requires WebGL).

§ Visibility from observer

Set your observer location to see the next 7 days of passes ≥ 10°. The values pass through the URL so the page stays shareable.

No JS? Fill the form by hand. The geolocation button needs JavaScript.